Weather in Kalinovka

Russia / Khabarovsk Krai     51°32′41″N   139°42′27″E
temp.,
°C
wind,
m/s
gust,
m/s
humid.,
%
clouds,
%
prec.,
mm/h
press.,
hPa
HPBL,
m
27 february, sat
sat2701:00−18wsw229196 0.0 102922
04:00−20wsw229291 0.0 103033
07:00−20sw338837 0.0 103061
10:00−17wsw248718 0.0 1030226
13:00−12wsw35830 0.0 1028414
16:00−10w358417 0.0 1025470
19:00−15wsw1192100 0.0 102521
22:00−13se2291100 0.0 102234
28 february, sun
sun2801:00−13se1289100 0.0 101860
04:00−12ese2294100 0.4 101344
07:00−12wnw1293100 0.1 101220
10:00−10wsw3989100 0.1 1011556
13:00−7w598499 0.1 1011796
16:00−7wsw3788100 0.3 1011701
19:00−11nnw1196100 0.8 101330
22:00−14n2397100 1.4 101592
1 march, mon
mon101:00−18n1295100 0.5 101736
04:00−20wsw1191100 0.6 101920
07:00−19wsw2299100 0.1 102141
10:00−18wsw3589100 0.1 1023460
13:00−15wsw5776100 0.0 1023946
16:00−15wsw71076100 0.1 10231176
19:00−20wsw338489 0.0 102428
22:00−22wsw348477 0.0 102573
2 march, tue
tue201:00−23sw358070 0.0 102593
04:00−24sw347985 0.0 102673
07:00−25sw238197 0.0 102839
10:00−22wsw397584 0.0 1028502
13:00−19wsw69730 0.0 10271064
16:00−18w6107233 0.0 10271447
19:00−22w237982 0.0 102720
22:00−24sw228873 0.0 102820
3 march, wed
wed301:00−26sw228820 0.0 102720
04:00−27sw229210 0.0 102620
07:00−27sw229879 0.0 102620
10:00−21wsw238948 0.0 1025240
13:00−16sw258125 0.0 1022503
16:00−12wsw387657 0.1 10191200
19:00−14ese1294100 0.2 101631
22:00−16s1188100 0.2 101520